Fort Collins, CO

2:29 AM MDT on March 29, 2017 (GMT -0600)
Fort Collins-Loveland Municipal

Weather History for KFNL - July, 2014

Change the Weather History Date:

Tuesday, July 29, 2014

  Actual Average Record
Temperature  
Mean Temperature 72 °F -  
Max Temperature 84 °F - 100 °F (2001)
Min Temperature 59 °F - 43 °F (2016)
Degree Days  
Heating Degree Days 0    
Month to date heating degree days  
Cooling Degree Days 6    
Month to date cooling degree days  
Growing Degree Days 22 (Base 50)    
Moisture  
Dew Point 58 °F    
Average Humidity 74    
Maximum Humidity 94    
Minimum Humidity 42    
Precipitation  
Precipitation 0.13 in - 0.25 in (1996)
Sea Level Pressure  
Sea Level Pressure 30.24 in    
Wind  
Wind Speed 7 mph (North)    
Max Wind Speed 28 mph    
Max Gust Speed 33 mph    
Visibility 10 miles    
Events Thunderstorm    
T = Trace of Precipitation, MM = Missing Value Source: NWS Daily Summary

Daily Weather History Graph

Daily Weather History Graph

Search for Another Location

Airport or City:

Trip Planner

Search our weather history database for the weather conditions in past years. The results will help you decide how hot, cold, wet, or windy it might be!

Date:

Astronomy

Jul. 29, 2014 Rise Set
Actual Time 5:54 AM MDT 8:17 PM MDT
Civil Twilight 5:23 AM MDT 8:48 PM MDT
Nautical Twilight 4:45 AM MDT 9:26 PM MDT
Astronomical Twilight 4:03 AM MDT 10:08 PM MDT
Moon 8:34 AM MDT 9:30 PM MDT
Length of Visible Light 15h 24m
Length of Day
14h 23m
Waxing Crescent, 7% of the Moon is Illuminated
Jul 29
Waxing Crescent
Aug 3
First Quarter
Aug 10
Full
Aug 17
Last Quarter
Aug 25
New

Hourly Weather History & Observations

Time (MDT) Temp. Heat Index Dew Point Humidity Pressure Visibility Wind Dir Wind Speed Gust Speed Precip Events Conditions
12:15 AM 68.0 °F - 53.6 °F 60% 30.27 in 10.0 mi North 3.5 mph - N/A   Clear
12:35 AM 66.2 °F - 53.6 °F 64% 30.26 in 10.0 mi Calm Calm - N/A   Clear
12:55 AM 66.2 °F - 53.6 °F 64% 30.27 in 10.0 mi NE 4.6 mph - N/A   Clear
1:15 AM 64.4 °F - 55.4 °F 73% 30.27 in 10.0 mi North 9.2 mph - N/A   Clear
1:35 AM 64.4 °F - 55.4 °F 73% 30.26 in 10.0 mi NNE 6.9 mph - N/A   Clear
1:55 AM 64.4 °F - 55.4 °F 73% 30.26 in 10.0 mi North 4.6 mph - N/A   Clear
2:15 AM 64.4 °F - 55.4 °F 73% 30.26 in 10.0 mi North 4.6 mph - N/A   Clear
2:35 AM 64.4 °F - 55.4 °F 73% 30.26 in 10.0 mi North 5.8 mph - N/A   Clear
2:55 AM 62.6 °F - 53.6 °F 72% 30.26 in 10.0 mi North 4.6 mph - N/A   Clear
3:15 AM 60.8 °F - 53.6 °F 77% 30.25 in 10.0 mi North 3.5 mph - N/A   Clear
3:35 AM 60.8 °F - 53.6 °F 77% 30.25 in 10.0 mi NNW 4.6 mph - N/A   Clear
3:55 AM 62.6 °F - 55.4 °F 77% 30.24 in 10.0 mi North 3.5 mph - N/A   Clear
4:15 AM 62.6 °F - 55.4 °F 77% 30.24 in 10.0 mi North 5.8 mph - N/A   Clear
4:35 AM 60.8 °F - 55.4 °F 82% 30.24 in 10.0 mi North 4.6 mph - N/A   Clear
4:55 AM 60.8 °F - 55.4 °F 82% 30.24 in 10.0 mi North 5.8 mph - N/A   Clear
5:15 AM 59.0 °F - 53.6 °F 82% 30.25 in 10.0 mi North 6.9 mph - N/A   Clear
5:35 AM 59.0 °F - 53.6 °F 82% 30.25 in 10.0 mi NNW 4.6 mph - N/A   Clear
5:55 AM 59.0 °F - 53.6 °F 82% 30.25 in 10.0 mi NNW 5.8 mph - N/A   Clear
6:15 AM 60.8 °F - 53.6 °F 77% 30.25 in 10.0 mi North 5.8 mph - N/A   Clear
6:35 AM 62.6 °F - 55.4 °F 77% 30.26 in 10.0 mi North 5.8 mph - N/A   Clear
6:55 AM 64.4 °F - 57.2 °F 77% 30.26 in 10.0 mi North 5.8 mph - N/A   Clear
7:15 AM 64.4 °F - 57.2 °F 77% 30.26 in 10.0 mi North 5.8 mph - N/A   Clear
7:35 AM 64.4 °F - 57.2 °F 77% 30.26 in 10.0 mi North 6.9 mph - N/A   Clear
7:55 AM 64.4 °F - 57.2 °F 77% 30.26 in 10.0 mi North 6.9 mph - N/A   Clear
8:15 AM 66.2 °F - 57.2 °F 73% 30.26 in 10.0 mi NNE 9.2 mph - N/A   Clear
8:35 AM 69.8 °F - 57.2 °F 64% 30.26 in 10.0 mi North 10.4 mph - N/A   Clear
8:55 AM 71.6 °F - 57.2 °F 60% 30.26 in 10.0 mi NNE 9.2 mph - N/A   Clear
9:15 AM 73.4 °F - 59.0 °F 61% 30.25 in 10.0 mi North 8.1 mph - N/A   Clear
9:35 AM 73.4 °F - 60.8 °F 65% 30.25 in 10.0 mi North 8.1 mph - N/A   Clear
9:55 AM 75.2 °F - 60.8 °F 61% 30.25 in 10.0 mi NE 5.8 mph - N/A   Clear
10:15 AM 75.2 °F - 59.0 °F 57% 30.25 in 10.0 mi NE 6.9 mph - N/A   Clear
10:35 AM 75.2 °F - 60.8 °F 61% 30.25 in 10.0 mi NE 9.2 mph - N/A   Clear
10:55 AM 78.8 °F - 60.8 °F 54% 30.25 in 10.0 mi NNE 5.8 mph - N/A   Clear
11:15 AM 78.8 °F - 59.0 °F 51% 30.24 in 10.0 mi ENE 11.5 mph - N/A   Clear
11:35 AM 80.6 °F 80.8 °F 57.2 °F 45% 30.23 in 10.0 mi East 12.7 mph 17.3 mph N/A   Clear
11:55 AM 80.6 °F 81.1 °F 59.0 °F 48% 30.22 in 10.0 mi ENE 12.7 mph 19.6 mph N/A   Clear
12:15 PM 82.4 °F 82.9 °F 60.8 °F 48% 30.21 in 10.0 mi ENE 13.8 mph - N/A   Clear
12:35 PM 84.2 °F 83.8 °F 59.0 °F 42% 30.19 in 10.0 mi ESE 10.4 mph - N/A   Scattered Clouds
12:55 PM 82.4 °F 82.0 °F 57.2 °F 42% 30.19 in 10.0 mi East 12.7 mph 16.1 mph N/A   Partly Cloudy
1:15 PM 82.4 °F 82.0 °F 57.2 °F 42% 30.18 in 10.0 mi South 10.4 mph - N/A   Partly Cloudy
1:35 PM 82.4 °F 82.0 °F 57.2 °F 42% 30.17 in 10.0 mi East 6.9 mph - N/A   Mostly Cloudy
1:55 PM 80.6 °F 81.1 °F 59.0 °F 48% 30.16 in 10.0 mi ESE 6.9 mph - N/A   Scattered Clouds
2:15 PM 80.6 °F 80.8 °F 57.2 °F 45% 30.15 in 10.0 mi NE 4.6 mph - N/A Thunderstorm Thunderstorm
2:35 PM 69.8 °F - 53.6 °F 56% 30.17 in 7.0 mi North 27.6 mph 33.4 mph N/A Thunderstorm Thunderstorm
2:55 PM 66.2 °F - 57.2 °F 73% 30.17 in 10.0 mi North 24.2 mph 29.9 mph N/A Thunderstorm Thunderstorm
3:15 PM 64.4 °F - 57.2 °F 77% 30.22 in 10.0 mi ENE 19.6 mph 23.0 mph N/A Thunderstorm Thunderstorm
3:35 PM 64.4 °F - 57.2 °F 77% 30.25 in 9.0 mi ENE 6.9 mph - N/A Thunderstorm Thunderstorm
4:15 PM 64.4 °F - 59.0 °F 83% 30.26 in 7.0 mi North 5.8 mph - 0.04 in Thunderstorm Scattered Clouds
4:35 PM 62.6 °F - 60.8 °F 94% 30.26 in 10.0 mi NNW 6.9 mph - 0.05 in   Scattered Clouds
4:55 PM 62.6 °F - 59.0 °F 88% 30.26 in 9.0 mi NNW 6.9 mph - 0.12 in   Mostly Cloudy
5:15 PM 62.6 °F - 59.0 °F 88% 30.26 in 10.0 mi NNW 6.9 mph - 0.01 in   Partly Cloudy
5:35 PM 62.6 °F - 60.8 °F 94% 30.25 in 10.0 mi NNW 5.8 mph - 0.01 in   Clear
5:55 PM 62.6 °F - 60.8 °F 94% 30.24 in 10.0 mi NNW 9.2 mph - 0.01 in   Partly Cloudy
6:15 PM 64.4 °F - 60.8 °F 88% 30.24 in 10.0 mi NW 8.1 mph - N/A   Clear
6:35 PM 62.6 °F - 60.8 °F 94% 30.23 in 10.0 mi NW 9.2 mph - N/A   Clear
6:55 PM 62.6 °F - 60.8 °F 94% 30.23 in 10.0 mi NNW 10.4 mph - N/A   Clear
7:15 PM 62.6 °F - 60.8 °F 94% 30.23 in 10.0 mi NNW 9.2 mph - N/A   Clear
7:35 PM 62.6 °F - 60.8 °F 94% 30.24 in 10.0 mi North 10.4 mph - N/A   Clear
7:55 PM 62.6 °F - 60.8 °F 94% 30.24 in 10.0 mi North 11.5 mph - N/A   Partly Cloudy
8:15 PM 62.6 °F - 60.8 °F 94% 30.24 in 10.0 mi North 9.2 mph - N/A   Partly Cloudy
8:35 PM 62.6 °F - 60.8 °F 94% 30.25 in 10.0 mi North 8.1 mph - N/A   Clear
8:55 PM 62.6 °F - 60.8 °F 94% 30.26 in 10.0 mi North 9.2 mph - N/A   Clear
9:15 PM 62.6 °F - 60.8 °F 94% 30.27 in 10.0 mi North 9.2 mph - N/A   Clear
9:35 PM 62.6 °F - 59.0 °F 88% 30.28 in 10.0 mi North 11.5 mph - N/A   Partly Cloudy
9:55 PM 60.8 °F - 57.2 °F 88% 30.29 in 10.0 mi North 12.7 mph - N/A   Mostly Cloudy
10:15 PM 60.8 °F - 57.2 °F 88% 30.29 in 10.0 mi North 8.1 mph - N/A   Mostly Cloudy
10:35 PM 60.8 °F - 57.2 °F 88% 30.29 in 10.0 mi North 8.1 mph - N/A   Mostly Cloudy
10:55 PM 60.8 °F - 57.2 °F 88% 30.29 in 10.0 mi North 6.9 mph - N/A   Overcast
11:35 PM 60.8 °F - 57.2 °F 88% 30.29 in 10.0 mi North 9.2 mph - N/A   Overcast
11:55 PM 60.8 °F - 57.2 °F 88% 30.29 in 10.0 mi NNE 6.9 mph - N/A   Overcast